Cortez, CO

4:09 AM MST on November 21, 2019 (GMT -0700)
Cortez Municipal

Weather History for KCEZ - September, 2019

Change the Weather History Date:

Friday, September 6, 2019

  Actual Average Record
Temperature  
Mean Temperature 72 °F 64 °F  
Max Temperature 93 °F 81 °F 93 °F (2019)
Min Temperature 51 °F 47 °F 36 °F (2004)
Degree Days  
Heating Degree Days 0 2  
Month to date heating degree days 0 11  
Since 1 July heating degree days 0 23  
Cooling Degree Days 7 1  
Month to date cooling degree days 48 9  
Year to date cooling degree days 528 418  
Growing Degree Days 22 (Base 50)    
Moisture  
Dew Point 43 °F    
Average Humidity 43    
Maximum Humidity 71    
Minimum Humidity 15    
Precipitation  
Precipitation T in 0.06 in 0.14 in (2011)
Month to date precipitation 0.07 0.30  
Year to date precipitation 9.85 8.74  
Sea Level Pressure  
Sea Level Pressure 30.01 in    
Wind  
Wind Speed 6 mph (SE)    
Max Wind Speed 17 mph    
Max Gust Speed 23 mph    
Visibility 10 miles    
Events Thunderstorm    
T = Trace of Precipitation, MM = Missing Value Source: NWS Daily Summary

Daily Weather History Graph

Daily Weather History Graph

Search for Another Location

Airport or City:

Astronomy

Sep. 06, 2019 Rise Set
Actual Time 6:49 AM MDT 7:36 PM MDT
Civil Twilight 6:22 AM MDT 8:02 PM MDT
Nautical Twilight 5:51 AM MDT 8:33 PM MDT
Astronomical Twilight 5:19 AM MDT 9:05 PM MDT
Moon 2:50 PM MDT (9/6) 12:05 AM MDT (9/6)
Length of Visible Light 13h 39m
Length of Day
12h 47m
First Quarter, 56% of the Moon is Illuminated
Sep 6
First Quarter
Sep 13
Full
Sep 21
Last Quarter
Sep 28
New
Oct 5
First Quarter

Hourly Weather History & Observations

Time (MDT) Temp. Dew Point Humidity Pressure Visibility Wind Dir Wind Speed Gust Speed Precip Events Conditions
12:53 AM 60.1 °F 43.0 °F 53% 30.02 in 10.0 mi ENE 4.6 mph - N/A   Clear
1:53 AM 57.0 °F 45.0 °F 64% 30.03 in 10.0 mi East 3.5 mph - N/A   Clear
2:53 AM 57.0 °F 44.1 °F 62% 30.02 in 10.0 mi Calm Calm - N/A   Clear
3:53 AM 55.0 °F 43.0 °F 64% 30.02 in 10.0 mi ENE 3.5 mph - N/A   Clear
4:53 AM 55.0 °F 44.1 °F 67% 30.03 in 10.0 mi ESE 4.6 mph - N/A   Clear
5:53 AM 54.0 °F 44.1 °F 69% 30.04 in 10.0 mi East 4.6 mph - N/A   Clear
6:53 AM 52.0 °F 42.1 °F 69% 30.07 in 10.0 mi NE 6.9 mph - N/A   Clear
7:53 AM 57.9 °F 43.0 °F 58% 30.12 in 10.0 mi East 3.5 mph - N/A   Clear
8:53 AM 68.0 °F 45.0 °F 43% 30.09 in 10.0 mi Calm Calm - N/A   Clear
9:53 AM 77.0 °F 46.9 °F 34% 30.07 in 10.0 mi Calm Calm - N/A   Clear
10:53 AM 82.9 °F 45.0 °F 26% 30.04 in 10.0 mi Calm Calm - N/A   Clear
11:53 AM 87.1 °F 45.0 °F 23% 30.03 in 10.0 mi SSW 15.0 mph - N/A   Clear
12:53 PM 89.1 °F 44.1 °F 21% 30.00 in 10.0 mi SW 12.7 mph - N/A   Clear
1:53 PM 91.0 °F 42.1 °F 18% 29.99 in 10.0 mi SW 12.7 mph - N/A   Clear
2:53 PM 91.9 °F 39.9 °F 16% 29.96 in 10.0 mi SSW 11.5 mph - N/A   Clear
3:53 PM 93.0 °F 39.9 °F 16% 29.94 in 10.0 mi West 11.5 mph 17.3 mph N/A   Clear
4:53 PM 91.9 °F 41.0 °F 17% 29.93 in 10.0 mi South 10.4 mph - N/A   Clear
5:53 PM 90.0 °F 42.1 °F 19% 29.93 in 10.0 mi South 8.1 mph - N/A   Clear
6:53 PM 88.0 °F 39.0 °F 18% 29.94 in 10.0 mi WSW 4.6 mph - N/A   Clear
7:53 PM 71.1 °F 48.0 °F 44% 29.97 in 10.0 mi South 4.6 mph - N/A   Clear
8:53 PM 69.1 °F 45.0 °F 42% 29.97 in 10.0 mi ENE 5.8 mph - N/A   Clear
9:53 PM 70.0 °F 41.0 °F 35% 29.94 in 10.0 mi ENE 9.2 mph - N/A   Clear
10:36 PM 69.1 °F 41.0 °F 36% 30.20 in 10.0 mi East 5.8 mph - N/A Thunderstorm Scattered Clouds
10:53 PM 69.1 °F 41.0 °F 36% 29.95 in 10.0 mi ESE 6.9 mph - N/A   Mostly Cloudy
11:53 PM 69.1 °F 43.0 °F 39% 29.92 in 10.0 mi East 3.5 mph - 0.00 in   Partly Cloudy